DW4669 Weather Reports


Display with metric or nautical units.
time (UTC)temp
F
wind
direction
speed
MPH
gust
MPH
rain 1hr
in
rain 24hr
in
rain mn
in
humidity
%
barometer
mb
20210621190512 87 40 0.0 8.0 0.00 0.00 0.00 68 1002.8
20210621190016 87 178 0.0 6.0 0.00 0.00 0.00 68 1003.0
20210621185518 87 209 1.0 8.0 0.00 0.00 0.00 66 1003.1
20210621185021 87 0 1.0 8.0 0.00 0.00 0.00 65 1003.4
20210621184519 87 174 2.0 10.0 0.00 0.00 0.00 67 1003.4
20210621184013 87 168 2.0 10.0 0.00 0.00 0.00 65 1003.6
20210621183516 87 0 2.0 9.0 0.00 0.00 0.00 68 1003.8
20210621183025 86 170 3.0 9.0 0.00 0.00 0.00 67 1003.8
20210621182516 87 300 2.0 9.0 0.00 0.00 0.00 66 1003.8
20210621182015 86 312 1.0 8.0 0.00 0.00 0.00 69 1003.8
20210621181536 86 0 1.0 8.0 0.00 0.00 0.00 69 1003.9
20210621181016 85 119 1.0 7.0 0.00 0.00 0.00 68 1004.1
20210621180533 85 296 2.0 10.0 0.00 0.00 0.00 69 1004.3
20210621180036 85 308 1.0 10.0 0.00 0.00 0.00 69 1004.3
20210621175528 85 277 3.0 10.0 0.00 0.00 0.00 67 1004.4
20210621175019 85 0 1.0 10.0 0.00 0.00 0.00 68 1004.4
20210621174602 85 129 1.0 10.0 0.00 0.00 0.00 67 1004.3
20210621174017 85 211 2.0 8.0 0.00 0.00 0.00 71 1004.3
20210621173512 85 263 0.0 6.0 0.00 0.00 0.00 68 1004.2
20210621173059 85 0 1.0 7.0 0.00 0.00 0.00 67 1004.3
20210621172512 85 221 1.0 7.0 0.00 0.00 0.00 68 1004.3
20210621172018 85 250 1.0 7.0 0.00 0.00 0.00 69 1004.1
20210621171539 85 313 2.0 9.0 0.00 0.00 0.00 70 1004.2
20210621171016 84 0 2.0 9.0 0.00 0.00 0.00 73 1004.4
20210621170521 84 187 2.0 9.0 0.00 0.00 0.00 69 1004.6
20210621170041 84 0 2.0 10.0 0.00 0.00 0.00 70 1004.7
20210621165513 84 0 2.0 10.0 0.00 0.00 0.00 71 1004.8
20210621165010 84 204 1.0 15.0 0.00 0.00 0.00 70 1004.7
20210621164527 84 142 4.0 15.0 0.00 0.00 0.00 70 1004.7
20210621164012 83 0 0.0 3.0 0.00 0.00 0.00 73 1004.7
20210621163528 83 0 0.0 5.0 0.00 0.00 0.00 73 1004.5
20210621163038 83 0 0.0 5.0 0.00 0.00 0.00 72 1004.5
20210621162512 83 217 0.0 4.0 0.00 0.00 0.00 71 1004.6
20210621162012 83 0 1.0 4.0 0.00 0.00 0.00 71 1004.8
20210621161527 84 0 0.0 4.0 0.00 0.00 0.00 71 1004.9
20210621161012 84 0 0.0 6.0 0.00 0.00 0.00 70 1004.9
20210621160512 85 130 1.0 6.0 0.00 0.00 0.00 69 1005.0
20210621160033 85 0 1.0 7.0 0.00 0.00 0.00 70 1005.0
20210621155512 85 5 0.0 7.0 0.00 0.00 0.00 70 1005.0
20210621155013 85 215 1.0 10.0 0.00 0.00 0.00 71 1005.0
20210621154539 85 191 0.0 10.0 0.00 0.00 0.00 70 1005.2
20210621154020 85 206 1.0 6.0 0.00 0.00 0.00 69 1005.2
20210621153519 85 0 1.0 6.0 0.00 0.00 0.00 68 1005.3
20210621153036 85 0 0.0 6.0 0.00 0.00 0.00 70 1005.5
20210621152512 85 126 0.0 8.0 0.00 0.00 0.00 71 1005.4
20210621152012 85 236 1.0 8.0 0.00 0.00 0.00 72 1005.5
20210621151517 85 178 0.0 7.0 0.00 0.00 0.00 71 1005.5
20210621151014 85 215 1.0 4.0 0.00 0.00 0.00 72 1005.5
20210621150516 85 0 0.0 6.0 0.00 0.00 0.00 73 1005.5
20210621150019 85 150 1.0 6.0 0.00 0.00 0.00 71 1005.5
20210621145513 84 0 0.0 5.0 0.00 0.00 0.00 73 1005.5
20210621145019 84 0 0.0 6.0 0.00 0.00 0.00 74 1005.6
20210621144514 84 0 1.0 6.0 0.00 0.00 0.00 76 1005.8
20210621144017 83 0 1.0 6.0 0.00 0.00 0.00 75 1005.8
20210621143513 83 334 0.0 6.0 0.00 0.00 0.00 76 1005.7
20210621143029 83 0 0.0 7.0 0.00 0.00 0.00 77 1005.9
20210621142527 82 0 1.0 7.0 0.00 0.00 0.00 78 1005.9
20210621142014 82 227 1.0 6.0 0.00 0.00 0.00 79 1006.0
20210621141514 82 0 1.0 6.0 0.00 0.00 0.00 78 1005.9
20210621141012 82 256 0.0 6.0 0.00 0.00 0.00 80 1006.0
20210621140512 81 0 0.0 6.0 0.00 0.00 0.00 80 1005.9
20210621140012 81 0 0.0 9.0 0.00 0.00 0.00 81 1006.0
20210621135534 81 182 1.0 9.0 0.00 0.00 0.00 82 1006.0
20210621135012 80 0 0.0 3.0 0.00 0.00 0.00 83 1006.0
20210621134522 80 211 0.0 3.0 0.00 0.00 0.00 82 1005.8
20210621134014 79 0 0.0 3.0 0.00 0.00 0.00 84 1005.9
20210621133513 79 0 0.0 3.0 0.00 0.00 0.00 85 1006.0
20210621133021 78 186 0.0 4.0 0.00 0.00 0.00 84 1006.1
20210621132512 78 184 1.0 4.0 0.00 0.00 0.00 85 1006.0
20210621132016 78 0 0.0 3.0 0.00 0.00 0.00 85 1006.1
20210621131539 78 0 0.0 3.0 0.00 0.00 0.00 84 1006.2
20210621131013 78 0 0.0 2.0 0.00 0.00 0.00 85 1006.3
20210621130512 77 0 0.0 2.0 0.00 0.00 0.00 85 1006.3
20210621130036 77 170 0.0 3.0 0.00 0.00 0.00 86 1006.2
20210621125512 77 196 0.0 3.0 0.00 0.00 0.00 86 1006.4
20210621125012 77 271 0.0 4.0 0.00 0.00 0.00 87 1006.5
20210621124513 77 276 1.0 5.0 0.00 0.00 0.00 86 1006.4
20210621124018 77 257 1.0 5.0 0.00 0.00 0.00 87 1006.5
20210621123511 76 0 0.0 3.0 0.00 0.00 0.00 87 1006.4
20210621123018 76 243 0.0 2.0 0.00 0.00 0.00 87 1006.3
20210621122513 76 0 0.0 2.0 0.00 0.00 0.00 88 1006.3
20210621122013 76 0 0.0 2.0 0.00 0.00 0.00 88 1006.3
20210621121552 75 0 0.0 2.0 0.00 0.00 0.00 89 1006.4
20210621121025 75 0 0.0 4.0 0.00 0.00 0.00 89 1006.5
20210621120512 75 0 0.0 4.0 0.00 0.00 0.00 89 1006.5
20210621120038 75 0 0.0 3.0 0.00 0.00 0.00 90 1006.5
20210621115534 74 0 0.0 3.0 0.00 0.00 0.00 90 1006.6
20210621115020 74 0 0.0 2.0 0.00 0.00 0.00 90 1006.6
20210621114512 74 141 0.0 3.0 0.00 0.00 0.00 90 1006.7
20210621114020 74 0 0.0 3.0 0.00 0.00 0.00 90 1006.8
20210621113512 74 0 0.0 2.0 0.00 0.00 0.00 90 1006.7
20210621113033 74 0 0.0 1.0 0.00 0.00 0.00 91 1006.8
20210621112512 73 0 0.0 2.0 0.00 0.00 0.00 90 1006.9
20210621112022 73 0 0.0 2.0 0.00 0.00 0.00 90 1006.9
20210621111521 73 0 0.0 1.0 0.00 0.00 0.00 91 1006.9
20210621111011 73 0 0.0 2.0 0.00 0.00 0.00 91 1007.0
20210621110509 73 0 0.0 2.0 0.00 0.00 0.00 90 1007.0
20210621110019 73 0 0.0 2.0 0.00 0.00 0.00 91 1006.9
20210621105510 73 0 0.0 2.0 0.00 0.00 0.00 91 1007.0
20210621105019 73 0 0.0 1.0 0.00 0.00 0.00 91 1007.1
20210621104541 73 0 0.0 1.0 0.00 0.00 0.00 90 1007.0
20210621104019 73 0 0.0 2.0 0.00 0.00 0.00 91 1006.9
20210621103512 73 0 0.0 2.0 0.00 0.00 0.00 90 1006.8
20210621103036 73 0 0.0 0.0 0.00 0.00 0.00 90 1006.8
20210621102511 73 0 0.0 0.0 0.00 0.00 0.00 90 1006.9
20210621102013 73 0 0.0 1.0 0.00 0.00 0.00 90 1006.8
20210621101519 73 0 0.0 3.0 0.00 0.00 0.00 90 1006.7
20210621101012 73 0 0.0 3.0 0.00 0.00 0.00 90 1006.7
20210621100512 73 0 0.0 0.0 0.00 0.00 0.00 91 1006.7
20210621100017 73 0 0.0 3.0 0.00 0.00 0.00 91 1006.6
20210621095512 73 0 0.0 3.0 0.00 0.00 0.00 91 1006.4
20210621095012 73 0 0.0 0.0 0.00 0.00 0.00 91 1006.2
20210621094521 73 0 0.0 0.0 0.00 0.00 0.00 90 1006.2
20210621094012 73 0 0.0 0.0 0.00 0.00 0.00 90 1006.4
20210621093512 73 0 0.0 0.0 0.00 0.00 0.00 90 1006.4
20210621093013 73 0 0.0 0.0 0.00 0.00 0.00 90 1006.2
20210621092512 73 0 0.0 0.0 0.00 0.00 0.00 90 1006.3
20210621092022 73 0 0.0 0.0 0.00 0.00 0.00 90 1006.4
20210621091521 73 0 0.0 0.0 0.00 0.00 0.00 90 1006.3
20210621091013 73 0 0.0 0.0 0.00 0.00 0.00 90 1006.4
20210621090513 73 0 0.0 0.0 0.00 0.00 0.00 90 1006.6
20210621090028 73 0 0.0 0.0 0.00 0.00 0.00 90 1006.6
20210621085512 73 0 0.0 0.0 0.00 0.00 0.00 90 1006.5
20210621085012 73 0 0.0 1.0 0.00 0.00 0.00 90 1006.6
20210621084523 73 0 0.0 1.0 0.00 0.00 0.00 90 1006.6
20210621084026 73 0 0.0 0.0 0.00 0.00 0.00 90 1006.6
20210621083509 73 0 0.0 0.0 0.00 0.00 0.00 90 1006.5
20210621083031 72 0 0.0 1.0 0.00 0.00 0.00 91 1006.6
20210621082509 72 0 0.0 1.0 0.00 0.00 0.00 91 1006.6
20210621082013 72 0 0.0 0.0 0.00 0.00 0.00 91 1006.6
20210621081525 72 0 0.0 0.0 0.00 0.00 0.00 92 1006.6
20210621081013 72 0 0.0 0.0 0.00 0.00 0.00 92 1006.8
20210621080514 72 0 0.0 0.0 0.00 0.00 0.00 92 1006.6
20210621080014 71 0 0.0 0.0 0.00 0.00 0.00 92 1006.7
20210621075512 71 0 0.0 0.0 0.00 0.00 0.00 92 1006.7
20210621075012 71 0 0.0 0.0 0.00 0.00 0.00 93 1006.7
20210621074513 71 0 0.0 0.0 0.00 0.00 0.00 93 1006.6
20210621074012 71 0 0.0 0.0 0.00 0.00 0.00 93 1006.6
20210621073517 71 0 0.0 0.0 0.00 0.00 0.00 93 1006.6
20210621073015 71 0 0.0 0.0 0.00 0.00 0.00 93 1006.7
20210621072512 71 0 0.0 0.0 0.00 0.00 0.00 93 1006.7
20210621072022 70 0 0.0 0.0 0.00 0.00 0.00 93 1006.7
20210621071523 70 0 0.0 0.0 0.00 0.00 0.00 93 1006.8
20210621071020 70 0 0.0 0.0 0.00 0.00 0.00 93 1006.9
20210621070517 70 0 0.0 0.0 0.00 0.00 0.00 93 1006.9
20210621070035 70 0 0.0 0.0 0.00 0.00 0.00 93 1006.9
20210621065514 70 0 0.0 0.0 0.00 0.00 0.00 92 1006.9
20210621065012 70 0 0.0 0.0 0.00 0.00 0.00 93 1007.0
20210621064512 70 0 0.0 0.0 0.00 0.00 0.00 93 1007.0
20210621064012 69 0 0.0 0.0 0.00 0.00 0.00 93 1007.0
20210621063513 69 0 0.0 0.0 0.00 0.00 0.00 93 1006.9
20210621063027 69 0 0.0 0.0 0.00 0.00 0.00 92 1006.9
20210621062512 69 0 0.0 0.0 0.00 0.00 0.00 92 1006.7
20210621062013 69 0 0.0 0.0 0.00 0.00 0.00 92 1006.7
20210621061518 70 0 0.0 0.0 0.00 0.00 0.00 92 1006.6
20210621061039 70 0 0.0 0.0 0.00 0.00 0.00 92 1006.6
20210621060513 70 0 0.0 0.0 0.00 0.00 0.00 92 1006.6
20210621060049 70 0 0.0 0.0 0.00 0.00 0.00 92 1006.7
20210621055512 70 0 0.0 0.0 0.00 0.00 0.00 92 1006.6
20210621055012 70 0 0.0 0.0 0.00 0.00 0.00 92 1006.8
20210621054525 70 0 0.0 0.0 0.00 0.00 0.00 91 1006.6
20210621054024 70 0 0.0 0.0 0.00 0.00 0.00 91 1006.6
20210621053532 70 0 0.0 0.0 0.00 0.00 0.00 91 1006.6
20210621053019 70 0 0.0 0.0 0.00 0.00 0.00 91 1006.5
20210621052520 70 0 0.0 0.0 0.00 0.00 0.00 90 1006.6
20210621052021 70 0 0.0 0.0 0.00 0.00 0.00 90 1006.5
20210621051524 70 0 0.0 0.0 0.00 0.00 0.00 90 1006.6
20210621051038 70 0 0.0 0.0 0.00 0.00 0.00 90 1006.6
20210621050519 70 0 0.0 0.0 0.00 0.00 0.00 91 1006.8
20210621050020 70 0 0.0 0.0 0.00 0.00 0.00 90 1006.8
20210621045536 70 0 0.0 0.0 0.00 0.00 0.00 90 1006.9
20210621045011 70 0 0.0 0.0 0.00 0.00 0.00 90 1007.1
20210621044524 70 0 0.0 0.0 0.00 0.00 0.00 90 1007.1
20210621044012 71 0 0.0 0.0 0.00 0.00 0.00 90 1007.3
20210621043512 71 0 0.0 0.0 0.00 0.00 0.00 89 1007.3
20210621043021 71 0 0.0 0.0 0.00 0.00 0.00 89 1007.3
20210621042511 71 0 0.0 0.0 0.00 0.00 0.00 89 1007.4
20210621042019 71 0 0.0 0.0 0.00 0.00 0.00 89 1007.6
20210621041544 71 0 0.0 0.0 0.00 0.00 0.00 89 1007.5
20210621041016 71 0 0.0 0.0 0.00 0.00 0.00 89 1007.7
20210621040512 71 0 0.0 0.0 0.00 0.00 0.00 88 1007.7
20210621040018 72 0 0.0 0.0 0.00 0.00 0.00 88 1007.8
20210621035513 72 0 0.0 0.0 0.00 0.00 0.00 88 1007.8
20210621035012 72 0 0.0 0.0 0.00 0.00 0.00 88 1007.9
20210621034520 72 0 0.0 0.0 0.00 0.00 0.00 88 1007.9
20210621034013 72 0 0.0 1.0 0.00 0.00 0.00 87 1008.0
20210621033515 72 0 0.0 1.0 0.00 0.00 0.00 87 1008.0
20210621033013 72 0 0.0 0.0 0.00 0.00 0.00 87 1008.0
20210621032524 73 0 0.0 0.0 0.00 0.00 0.00 86 1008.1
20210621032012 73 0 0.0 0.0 0.00 0.00 0.00 86 1008.2
20210621031537 73 0 0.0 0.0 0.00 0.00 0.00 86 1008.3
20210621031015 73 0 0.0 0.0 0.00 0.00 0.00 86 1008.3
20210621030510 74 0 0.0 0.0 0.00 0.00 0.00 85 1008.4
20210621030013 74 0 0.0 0.0 0.00 0.00 0.00 85 1008.3
20210621025517 74 0 0.0 0.0 0.00 0.00 0.00 84 1008.3
20210621025017 74 0 0.0 0.0 0.00 0.00 0.00 84 1008.3
20210621024512 74 0 0.0 0.0 0.00 0.00 0.00 84 1008.3
20210621024029 74 0 0.0 0.0 0.00 0.00 0.00 84 1008.4
20210621023512 74 0 0.0 0.0 0.00 0.00 0.00 84 1008.3
20210621023030 74 0 0.0 0.0 0.00 0.00 0.00 84 1008.3
20210621022524 74 0 0.0 0.0 0.00 0.00 0.00 85 1008.3
20210621022009 74 0 0.0 0.0 0.00 0.00 0.00 85 1008.2
20210621021513 74 0 0.0 0.0 0.00 0.00 0.00 85 1008.2
20210621021013 74 0 0.0 0.0 0.00 0.00 0.00 85 1008.3
20210621020512 74 0 0.0 0.0 0.00 0.00 0.00 85 1008.2
20210621020016 74 0 0.0 0.0 0.00 0.00 0.00 85 1008.3
20210621015517 74 0 0.0 0.0 0.00 0.00 0.00 85 1008.2
20210621015013 74 0 0.0 0.0 0.00 0.00 0.00 85 1008.3
20210621014515 74 0 0.0 0.0 0.00 0.00 0.00 85 1008.3
20210621014012 75 0 0.0 0.0 0.00 0.00 0.00 85 1008.3
20210621013510 75 0 0.0 0.0 0.00 0.00 0.00 84 1008.3
20210621013019 75 0 0.0 0.0 0.00 0.00 0.00 83 1008.3
20210621012514 75 0 0.0 0.0 0.00 0.00 0.00 83 1008.2
20210621012012 75 0 0.0 0.0 0.00 0.00 0.00 82 1008.1
20210621011523 76 0 0.0 0.0 0.00 0.00 0.00 82 1008.1
20210621011013 76 0 0.0 0.0 0.00 0.00 0.00 81 1008.0
20210621010513 77 0 0.0 0.0 0.00 0.00 0.00 80 1008.0
20210621010015 77 0 0.0 0.0 0.00 0.00 0.00 80 1007.9
20210621005512 77 0 0.0 0.0 0.00 0.01 0.00 79 1007.8
20210621005010 78 0 0.0 0.0 0.00 0.01 0.00 79 1007.8
20210621004522 78 0 0.0 0.0 0.00 0.01 0.00 77 1007.7
20210621004010 79 0 0.0 0.0 0.00 0.01 0.00 76 1007.5
20210621003510 79 0 0.0 0.0 0.00 0.01 0.00 76 1007.5
20210621003011 80 0 0.0 0.0 0.00 0.01 0.00 75 1007.6
20210621002510 80 0 0.0 0.0 0.00 0.01 0.00 74 1007.6
20210621002013 81 0 0.0 0.0 0.00 0.01 0.00 73 1007.6
20210621001555 81 0 0.0 0.0 0.00 0.01 0.00 73 1007.5
20210621001009 82 0 0.0 0.0 0.00 0.01 0.00 72 1007.4
20210621000512 82 0 0.0 0.0 0.00 0.01 0.00 71 1007.3
20210621000024 83 0 0.0 0.0 0.00 0.01 0.00 71 1007.3
20210620235512 83 0 0.0 0.0 0.00 0.01 0.00 71 1007.3
20210620235010 84 0 0.0 0.0 0.00 0.01 0.00 70 1007.2
20210620234511 84 0 0.0 0.0 0.00 0.01 0.00 69 1007.3
20210620234013 85 0 0.0 0.0 0.00 0.01 0.00 69 1007.1
20210620233510 85 0 0.0 0.0 0.00 0.01 0.00 68 1007.1
20210620233010 86 0 0.0 0.0 0.00 0.01 0.00 67 1007.1
20210620232510 86 0 0.0 2.0 0.00 0.01 0.00 66 1007.0
20210620232020 87 0 0.0 3.0 0.00 0.01 0.00 65 1007.1
20210620231515 88 0 0.0 3.0 0.00 0.01 0.00 63 1007.1
20210620231016 88 0 0.0 0.0 0.00 0.01 0.00 63 1007.3
20210620230510 88 0 0.0 0.0 0.00 0.01 0.00 65 1007.3
20210620230021 88 0 0.0 0.0 0.00 0.01 0.00 63 1007.3
20210620225512 88 0 0.0 0.0 0.00 0.03 0.00 64 1007.2
20210620225012 88 0 0.0 1.0 0.00 0.03 0.00 64 1007.3
20210620224513 88 0 0.0 1.0 0.00 0.03 0.00 63 1007.3
20210620224019 88 0 0.0 2.0 0.00 0.03 0.00 64 1007.3
20210620223510 88 217 0.0 3.0 0.00 0.03 0.00 62 1007.3
20210620223010 88 263 0.0 3.0 0.00 0.03 0.00 62 1007.3
20210620222513 88 0 0.0 0.0 0.00 0.03 0.00 62 1007.3
20210620222013 87 0 0.0 0.0 0.00 0.03 0.00 64 1007.3
20210620221519 87 0 0.0 2.0 0.00 0.03 0.00 64 1007.3
20210620221013 87 0 0.0 2.0 0.00 0.03 0.00 63 1007.3
20210620220513 87 0 0.0 0.0 0.00 0.03 0.00 62 1007.3
20210620220043 87 0 0.0 1.0 0.00 0.03 0.00 62 1007.3
20210620215512 88 0 0.0 2.0 0.00 0.03 0.00 61 1007.3
20210620215012 87 0 0.0 2.0 0.00 0.03 0.00 62 1007.3
20210620214617 87 204 0.0 5.0 0.00 0.03 0.00 60 1007.3
20210620214013 88 0 0.0 5.0 0.00 0.03 0.00 61 1007.4
20210620213528 88 0 0.0 4.0 0.00 0.03 0.00 60 1007.3
20210620213036 88 0 0.0 4.0 0.00 0.03 0.00 60 1007.5
20210620212513 88 0 0.0 3.0 0.00 0.03 0.00 62 1007.4
20210620212013 88 0 0.0 2.0 0.00 0.03 0.00 63 1007.3
20210620211543 87 0 0.0 2.0 0.00 0.03 0.00 64 1007.4
20210620211015 87 0 0.0 3.0 0.00 0.03 0.00 64 1007.5
20210620210515 86 0 0.0 3.0 0.00 0.03 0.00 63 1007.5
20210620210019 85 0 0.0 3.0 0.00 0.03 0.00 62 1007.6
20210620205513 85 0 0.0 7.0 0.00 0.03 0.00 65 1007.6
20210620205013 85 221 2.0 9.0 0.00 0.03 0.00 62 1007.7
20210620204531 85 0 1.0 9.0 0.00 0.03 0.00 63 1007.6
20210620204012 85 0 1.0 7.0 0.00 0.03 0.00 61 1007.7
20210620203517 85 294 2.0 7.0 0.00 0.03 0.00 63 1007.6
20210620203017 85 266 2.0 7.0 0.00 0.03 0.00 63 1007.6
20210620202509 85 0 1.0 6.0 0.00 0.03 0.00 64 1007.6
20210620202010 84 246 0.0 3.0 0.00 0.03 0.00 65 1007.5
20210620201510 84 0 0.0 4.0 0.00 0.03 0.00 64 1007.6
20210620201012 84 281 1.0 4.0 0.00 0.03 0.00 62 1007.6
20210620200512 85 0 0.0 6.0 0.00 0.03 0.00 62 1007.4
20210620200026 85 0 0.0 6.0 0.00 0.03 0.00 61 1007.5
20210620195512 86 175 0.0 8.0 0.00 0.03 0.00 59 1007.6
20210620195010 86 243 1.0 8.0 0.00 0.03 0.00 58 1007.7
20210620194521 86 0 0.0 7.0 0.00 0.03 0.00 60 1007.8
20210620194010 86 155 1.0 7.0 0.00 0.03 0.00 59 1007.7
20210620193510 86 263 1.0 7.0 0.00 0.03 0.00 60 1007.6
20210620193015 86 0 1.0 7.0 0.00 0.03 0.00 61 1007.6
20210620192513 85 113 1.0 8.0 0.00 0.03 0.00 65 1007.8
20210620192017 84 262 1.0 10.0 0.00 0.03 0.00 62 1007.7
20210620191513 84 344 1.0 10.0 0.00 0.03 0.00 62 1007.8
20210620191013 84 261 1.0 8.0 0.00 0.03 0.00 62 1007.7